Regional Weather Roundup
Issued by NWS

Home | Current Version | Previous Version | Graphics & Text | Print | Product List | Glossary On
Versions: 1 2 3 4 5 6 7 8 9 10 11 12 13 14 15 16 17 18 19 20 21 22 23 24 25 26 27 28 29 30 31 32 33 34 35 36 37 38 39 40 41 42 43 44 45 46 47 48 49 50
000
ASUS43 KMPX 302001
RWRMN
WEATHER ROUNDUP FOR MINNESOTA
NATIONAL WEATHER SERVICE TWIN CITIES/CHANHASSEN MN
300 PM CDT MON MAR 30 2015


NOTE: "FAIR" INDICATES FEW OR NO CLOUDS BELOW 12,000 FEET WITH NO
SIGNIFICANT WEATHER AND/OR OBSTRUCTIONS TO VISIBILITY. N/A MEANS
CURRENT SKY AND/OR WEATHER CONDITIONS ARE NOT AVAILABLE.

MNZ060>063-068>070-302100-
   Twin Cities Metro

CITY           SKY/WX    TMP DP  RH WIND       PRES   REMARKS
TWIN CITIES    PTSUNNY   53  31  42 SE15      29.85F
ST PAUL        FAIR      54  33  45 S14       29.86F
CRYSTAL        FAIR      55  31  39 SE13      29.83F
BLAINE         MOSUNNY   55  34  44 SE12      29.84F
LAKEVILLE      FAIR      54  36  50 SE10      29.84F
EDEN PRAIRIE   FAIR      55  32  41 SE14      29.82F
SOUTH ST PAUL  FAIR      53  31  44 S9        29.86F
LAKE ELMO      FAIR      55  36  47 SE8       29.87F
$$
MNZ001>005-007-008-013>017-022>024-027-028-302100-
   Northwest Minnesota

CITY           SKY/WX    TMP DP  RH WIND       PRES   REMARKS
BEMIDJI        RAIN      38  34  85 CALM      29.87R
HALLOCK        PTSUNNY   48  37  66 SW7       29.86S
ROSEAU         FAIR      48  37  66 SW6       29.85F
WARROAD        FAIR      46  36  66 SW10      29.85F
THIEF RVR FALL CLOUDY    41  36  81 CALM      29.88S
CROOKSTON      CLOUDY    43  37  81 E13       29.87R
FOSSTON        LGT RAIN  39  37  93 CALM      29.87F
DETROIT LAKES  FAIR      52  32  46 S3        29.82R
MOORHEAD       FAIR      59  34  38 NW6       29.80F
PARK RAPIDS    CLOUDY    45  36  70 E6        29.82S
MAHNOMEN       CLOUDY    43  37  81 NE8       29.84R
$$
MNZ006-009>011-018-025>026-302100-
   North Central Minnesota

CITY           SKY/WX    TMP DP  RH WIND       PRES   REMARKS
BAUDETTE       FAIR      48  32  53 NW6       29.84S
FLAG ISLAND    FAIR      37  32  81 SE5       29.82F
INTL FALLS     CLOUDY    51  23  33 W5        29.82F
WASKISH        FAIR      45  34  65 CALM      29.86R
BIG FORK       LGT RAIN  46  28  49 CALM      29.84S
LONGVILLE      RAIN      39  37  93 CALM      29.85R
GRAND RAPIDS   CLOUDY    43  30  61 S7        29.84R
CRANE LAKE     FAIR      48  18  29 N2        29.84F
ORR            FAIR      48  18  29 CALM      29.79F
COOK           FAIR      50  21  32 CALM      29.81F
WALKER         RAIN      37  34  89 N6        29.85R
$$
MNZ012-019>021-037-302100-
   Northeast Minnesota

CITY           SKY/WX    TMP DP  RH WIND       PRES   REMARKS
DULUTH         FAIR      49  25  39 S7        29.82F
ELY            FAIR      48  19  32 W3        29.82F
HIBBING        CLOUDY    49  22  34 CALM      29.81F
EVELETH        FAIR      50  23  34 CALM      29.82F
DULUTH HARBOR  FAIR      52  25  35 CALM      29.84F
TWO HARBORS    FAIR      54  30  40 S14       29.81F
SILVER BAY     FAIR      54  25  32 S14       29.80F
GRAND MARAIS     N/A     37  31  78 SW6       29.86F
G MARAIS ARPRT FAIR      45  18  33 NW14      29.82F
$$
MNZ029>031-032-039>041-046>048-054>057-064-302100-
   West Central Minnesota

CITY           SKY/WX    TMP DP  RH WIND       PRES   REMARKS
FERGUS FALLS   FAIR      61  30  31 S7        29.79F
WHEATON        FAIR      66  37  34 W15G21    29.79F
MORRIS         FAIR      68  36  30 NW9       29.76S
ALEXANDRIA     PTSUNNY   56  33  42 S9        29.80F
ELBOW LAKE     FAIR      62  37  40 S7        29.76F
WADENA         FAIR      52  32  46 E9        29.80R
GLENWOOD       FAIR      57  32  38 S3        29.80F
APPLETON       FAIR      73  27  17 W20G26    29.77S
BENSON         FAIR      70  30  23 NW6       29.77F
ORTONVILLE     FAIR      72  28  20 NW15G22   29.77S
MADISON        FAIR      72  25  17 W21G37    29.77S
WILLMAR        FAIR      64  34  32 W5        29.80F
$$
MNZ033>034-036-042>043-049>051-058-059-302100-
   Central Minnesota

CITY           SKY/WX    TMP DP  RH WIND       PRES   REMARKS
ST CLOUD       FAIR      53  34  48 SE14      29.81F
SAUK CENTRE    MOCLDY    55  37  51 SE9G17    29.81F
PAYNESVILLE    FAIR      55  33  43 E9        29.80F
AITKIN         PTSUNNY   45  37  76 SE7       29.81F
PINE RIVER     LGT RAIN  39  36  87 E5        29.88R
BRAINERD       LGT RAIN  41  36  82 SE8       29.83F
STAPLES        PTSUNNY   46  32  57 NE7       29.81S
LONG PRAIRIE   PTSUNNY   54  34  47 SE10G17   29.81F
LITTLE FALLS   FAIR      52  32  46 SE10G17   29.81F
LITCHFIELD     FAIR      61  34  36 CALM      29.80F
MAPLE LAKE     FAIR      56  34  43 SE8       29.82F
$$
MNZ037-044-045-052-053-302100-
   East Central Minnesota

CITY           SKY/WX    TMP DP  RH WIND       PRES   REMARKS
PRINCETON      FAIR      54  36  50 E6        29.84F
MORA           FAIR      45  34  65 E3        29.87S
CAMBRIDGE      FAIR      54  37  54 SE6       29.83F
MOOSE LAKE     CLOUDY    41  36  81 CALM      29.83F
HINCKLEY       LGT RAIN  45  37  76 E6        29.84F
CLOQUET        FAIR      46  30  53 S5        29.82F
MCGREGOR       CLOUDY    41  36  81 SE6       29.84F
$$
MNZ071>073-080-081-089-090-097-098-302100-
   Southwest Minnesota

CITY           SKY/WX    TMP DP  RH WIND       PRES   REMARKS
MONTEVIDEO     FAIR      73  30  20 N20G28    29.76F
GRANITE FALLS  FAIR      74  30  20 W20G29    29.79F
CANBY          FAIR      72  28  19 W21G32    29.80S
MARSHALL       FAIR      72  28  20 NW24G33   29.79F
REDWOOD FALLS  FAIR      73  28  18 NW14G25   29.77F
OLIVIA         FAIR      63  37  39 SE6       29.78F
PIPESTONE      FAIR      72  23  16 NW21G31   29.83F
WINDOM         FAIR      72  25  17 W20G26    29.81F
WORTHINGTON    FAIR      70  27  19 W22G31    29.84F
JACKSON        FAIR      70  19  14 W16G28    29.83F
TRACY          FAIR      73  30  20 W15G24    29.81F
SLAYTON        FAIR      71  16  12 W23G30    29.82F
$$
MNZ065>067-074>077-082>085-091>093-302100-
   South Central Minnesota

CITY           SKY/WX    TMP DP  RH WIND       PRES   REMARKS
MANKATO        FAIR      63  37  39 E14       29.81F
NEW ULM        FAIR      66  36  32 NE8       29.79S
FAIRMONT       FAIR      70  12  11 W18G28    29.81F
GLENCOE        FAIR      59  39  46 E10       29.80F
FARIBAULT      FAIR      57  36  44 E10       29.84F
OWATONNA       FAIR      61  37  41 E13       29.83F
WASECA         FAIR      64  36  34 E13       29.83F
ALBERT LEA     FAIR      70  27  19 SW15G23   29.81F
$$
MNZ078>079-086>088-094>096-302100-
   Southeast Minnesota

CITY           SKY/WX    TMP DP  RH WIND       PRES   REMARKS
ROCHESTER      CLOUDY    56  36  47 SE9       29.88F
RED WING       FAIR      54  30  40 S8        29.87F
STANTON        FAIR      55  34  43 SE9       29.83F
DODGE CENTER   FAIR      57  39  51 SE10      29.86F
WINONA         PTSUNNY   54  32  43 E8        29.90F
AUSTIN           N/A     64  34  32 SW14G20   29.84F
PRESTON        CLOUDY    55  32  42 SE5       29.89F
$$
ABBREVIATIONS USED IN REMARKS
   TC - TEMPERATURES IN CELSIUS
  WCI - WIND CHILL INDEX
   HX - HEAT INDEX
  VSB - VISIBILITY
$$


USA.gov is the U.S. government's official web portal to all federal, state and local government web resources and services.